VKG637 ESSA-LCLK

Flight info

Callsign VKG637
Flight time N/A
Altitude 33000
Route BABAP T316 NEPVA DCT OLANU DCT PENOR/N0445F350 N133 IRLUN DCT BIBKA N133 NUBLI DCT ORTEB DCT LENOV DCT KENIN DCT LARMU DCT RUTUV DCT BUKEL DCT PEXAL DCT ASNEL DCT RIXEN UG1 IST UT35 AYT UA16 TOMBI DCT DASNI M601 BONEK
Aircraft A321/M-SDE2E3FGHIJ1RWXYZ/LB2

Departure

Time N/A
Airport Stockholm-Arlanda Airport (ESSA)

Arrival

Time 2026-05-01 09:15
Airport Larnaca International Airport (LCLK)
Time Latitude Longitude Altitude Speed Heading
2026-05-01 07:23 45.90356 24.73035 35328 ft 462 kts 137°
2026-05-01 07:24 45.83026 24.82048 35340 ft 463 kts 138°
2026-05-01 07:24 45.78123 24.88039 35337 ft 463 kts 138°
2026-05-01 07:25 45.73218 24.94027 35341 ft 463 kts 138°
2026-05-01 07:25 45.68333 24.99974 35342 ft 463 kts 138°
2026-05-01 07:26 45.63412 25.05959 35346 ft 463 kts 138°
2026-05-01 07:26 45.58499 25.11920 35334 ft 464 kts 138°
2026-05-01 07:27 45.53563 25.17876 35330 ft 465 kts 139°
2026-05-01 07:27 45.48620 25.23830 35329 ft 465 kts 139°
2026-05-01 07:28 45.43709 25.29753 35345 ft 465 kts 139°
2026-05-01 07:28 45.38769 25.35700 35342 ft 465 kts 139°
2026-05-01 07:29 45.33822 25.41630 35342 ft 465 kts 139°
2026-05-01 07:29 45.28869 25.47544 35328 ft 465 kts 139°
2026-05-01 07:30 45.23908 25.53449 35332 ft 465 kts 139°
2026-05-01 07:30 45.18931 25.59362 35323 ft 466 kts 139°
2026-05-01 07:31 45.13950 25.65273 35322 ft 467 kts 139°
2026-05-01 07:32 45.01224 25.79533 35317 ft 468 kts 144°
2026-05-01 07:33 44.93191 25.87400 35326 ft 467 kts 144°
2026-05-01 07:33 44.85281 25.95377 35338 ft 467 kts 144°
2026-05-01 07:34 44.77381 26.03391 35356 ft 466 kts 144°
2026-05-01 07:35 44.72115 26.08726 35353 ft 465 kts 141°
2026-05-01 07:35 44.67378 26.14848 35359 ft 465 kts 136°
2026-05-01 07:36 44.62677 26.21097 35362 ft 465 kts 137°
2026-05-01 07:36 44.57956 26.27347 35318 ft 466 kts 137°
2026-05-01 07:37 44.50576 26.36218 35311 ft 466 kts 144°
2026-05-01 07:37 44.45364 26.41637 35304 ft 466 kts 144°
2026-05-01 07:38 44.40158 26.47059 35311 ft 466 kts 144°
2026-05-01 07:39 44.32363 26.55159 35323 ft 465 kts 144°
2026-05-01 07:39 44.24606 26.63181 35318 ft 464 kts 144°
2026-05-01 07:40 44.19397 26.68543 35317 ft 464 kts 144°
2026-05-01 07:40 44.14199 26.73884 35301 ft 463 kts 145°
2026-05-01 07:41 44.09886 26.78313 35308 ft 463 kts 145°
2026-05-01 07:42 44.02115 26.86259 35305 ft 463 kts 145°
2026-05-01 07:42 43.96920 26.91562 35299 ft 463 kts 145°
2026-05-01 07:43 43.91725 26.96862 35304 ft 463 kts 145°
2026-05-01 07:43 43.83952 27.04762 35293 ft 463 kts 145°
2026-05-01 07:44 43.73526 27.15287 35289 ft 463 kts 146°
2026-05-01 07:45 43.68312 27.20559 35292 ft 464 kts 146°
2026-05-01 07:45 43.63132 27.25787 35276 ft 463 kts 146°
2026-05-01 07:46 43.57909 27.31027 35276 ft 463 kts 146°
2026-05-01 07:47 43.50114 27.38818 35275 ft 462 kts 146°
2026-05-01 07:47 43.44900 27.44027 35273 ft 462 kts 146°
2026-05-01 07:48 43.37112 27.51784 35270 ft 462 kts 147°
2026-05-01 07:48 43.31902 27.56957 35272 ft 462 kts 147°
2026-05-01 07:49 43.24080 27.64705 35272 ft 461 kts 147°
2026-05-01 07:50 43.18873 27.69851 35275 ft 461 kts 147°
2026-05-01 07:50 43.13434 27.74208 35270 ft 453 kts 163°
2026-05-01 07:50 43.10472 27.75716 35267 ft 453 kts 163°
2026-05-01 07:51 43.04552 27.78720 35257 ft 453 kts 163°
2026-05-01 07:52 42.95716 27.83208 35277 ft 452 kts 163°
2026-05-01 07:52 42.89803 27.86206 35282 ft 451 kts 163°
2026-05-01 07:53 42.81005 27.90657 35274 ft 450 kts 163°
2026-05-01 07:53 42.75122 27.93627 35258 ft 450 kts 164°
2026-05-01 07:55 42.60483 28.00977 35275 ft 448 kts 164°
2026-05-01 07:56 42.45874 28.08272 35270 ft 447 kts 165°
2026-05-01 07:57 42.37118 28.12630 35261 ft 445 kts 165°
2026-05-01 07:58 42.25504 28.18409 35254 ft 444 kts 165°
2026-05-01 07:59 42.13940 28.24112 35247 ft 442 kts 166°
2026-05-01 08:00 41.96645 28.32612 35244 ft 441 kts 166°
2026-05-01 08:01 41.85102 28.38260 35227 ft 441 kts 166°
2026-05-01 08:02 41.76480 28.42465 35232 ft 441 kts 166°
2026-05-01 08:03 41.67824 28.46668 35224 ft 439 kts 166°
2026-05-01 08:03 41.59248 28.50824 35222 ft 439 kts 166°
2026-05-01 08:04 41.47772 28.56384 35190 ft 438 kts 167°
2026-05-01 08:05 41.39192 28.60521 35198 ft 436 kts 167°
2026-05-01 08:06 41.30645 28.64617 35197 ft 436 kts 167°
2026-05-01 08:07 41.19229 28.70089 35199 ft 434 kts 167°
2026-05-01 08:08 41.10736 28.74141 35203 ft 433 kts 167°
2026-05-01 08:09 40.99376 28.79551 35204 ft 432 kts 167°
2026-05-01 08:09 40.93756 28.82253 35192 ft 434 kts 166°
2026-05-01 08:10 40.82568 28.88448 35191 ft 435 kts 164°
2026-05-01 08:11 40.71407 28.94584 35154 ft 435 kts 165°
2026-05-01 08:12 40.63004 28.99124 35139 ft 434 kts 165°
2026-05-01 08:13 40.54637 29.03638 35127 ft 434 kts 165°
2026-05-01 08:13 40.46266 29.08154 35137 ft 434 kts 165°
2026-05-01 08:14 40.40668 29.11171 35135 ft 434 kts 165°
2026-05-01 08:14 40.35069 29.14173 35105 ft 434 kts 165°
2026-05-01 08:15 40.26677 29.18666 35110 ft 436 kts 165°
2026-05-01 08:16 40.21059 29.21683 35111 ft 436 kts 165°
2026-05-01 08:16 40.15441 29.24685 35117 ft 436 kts 165°
2026-05-01 08:17 40.09800 29.27677 35111 ft 439 kts 165°
2026-05-01 08:17 40.04148 29.30673 35116 ft 440 kts 165°
2026-05-01 08:18 39.98474 29.33693 35116 ft 440 kts 165°
2026-05-01 08:19 39.87111 29.39736 35095 ft 441 kts 164°
2026-05-01 08:19 39.81448 29.42869 35091 ft 442 kts 164°
2026-05-01 08:20 39.75788 29.46024 35093 ft 442 kts 164°
2026-05-01 08:20 39.70152 29.49124 35080 ft 442 kts 164°
2026-05-01 08:21 39.64472 29.52217 35056 ft 442 kts 164°
2026-05-01 08:21 39.58749 29.55199 35052 ft 442 kts 165°
2026-05-01 08:22 39.53017 29.58008 35050 ft 442 kts 166°
2026-05-01 08:22 39.47252 29.60833 35054 ft 442 kts 165°
2026-05-01 08:23 39.41527 29.63673 35032 ft 442 kts 165°
2026-05-01 08:23 39.35770 29.66544 35027 ft 443 kts 165°
2026-05-01 08:24 39.30040 29.69388 35034 ft 443 kts 165°
2026-05-01 08:24 39.24277 29.72252 35028 ft 443 kts 165°
2026-05-01 08:25 39.18511 29.75109 35011 ft 443 kts 165°
2026-05-01 08:25 39.12742 29.77947 35004 ft 443 kts 165°
2026-05-01 08:26 39.07004 29.80769 35009 ft 444 kts 165°
2026-05-01 08:26 39.01214 29.83617 34986 ft 444 kts 165°
2026-05-01 08:27 38.95433 29.86456 34975 ft 444 kts 164°
2026-05-01 08:27 38.89695 29.89271 34986 ft 444 kts 164°
2026-05-01 08:28 38.83905 29.92069 34993 ft 444 kts 165°
2026-05-01 08:28 38.78098 29.94822 34990 ft 444 kts 165°
2026-05-01 08:29 38.72323 29.97550 34995 ft 444 kts 165°
2026-05-01 08:29 38.67492 29.99831 34991 ft 444 kts 165°
2026-05-01 08:30 38.60737 30.03028 34994 ft 444 kts 165°
2026-05-01 08:30 38.55882 30.05322 34993 ft 444 kts 165°
2026-05-01 08:31 38.50115 30.08039 34963 ft 444 kts 165°
2026-05-01 08:31 38.44300 30.10777 34967 ft 445 kts 165°
2026-05-01 08:32 38.38483 30.13511 34971 ft 445 kts 165°
2026-05-01 08:32 38.32664 30.16234 34980 ft 445 kts 165°
2026-05-01 08:33 38.26841 30.18926 34959 ft 445 kts 165°
2026-05-01 08:33 38.21043 30.21580 34962 ft 445 kts 165°
2026-05-01 08:34 38.15201 30.24257 34975 ft 446 kts 165°
2026-05-01 08:34 38.09351 30.26943 34970 ft 446 kts 165°
2026-05-01 08:35 38.03535 30.29606 34954 ft 446 kts 165°
2026-05-01 08:35 37.97671 30.32282 34967 ft 447 kts 166°
2026-05-01 08:36 37.91801 30.34934 34956 ft 447 kts 166°
2026-05-01 08:36 37.85960 30.37571 34956 ft 448 kts 166°
2026-05-01 08:37 37.80068 30.40239 34924 ft 449 kts 166°
2026-05-01 08:37 37.74515 30.43915 34953 ft 462 kts 147°
2026-05-01 08:38 37.69406 30.48866 34954 ft 462 kts 147°
2026-05-01 08:38 37.64330 30.53835 34964 ft 463 kts 147°
2026-05-01 08:39 37.59227 30.58823 34970 ft 463 kts 147°
2026-05-01 08:39 37.54119 30.63780 34947 ft 463 kts 147°
2026-05-01 08:40 37.46456 30.71180 34958 ft 465 kts 147°
2026-05-01 08:40 37.41305 30.76158 34964 ft 466 kts 147°
2026-05-01 08:41 37.36181 30.81110 34970 ft 467 kts 147°
2026-05-01 08:41 37.31007 30.86090 34970 ft 467 kts 147°
2026-05-01 08:42 37.25839 30.91050 34953 ft 467 kts 147°
2026-05-01 08:42 37.20694 30.95978 34951 ft 468 kts 147°
2026-05-01 08:43 37.15504 31.00947 34960 ft 469 kts 147°
2026-05-01 08:43 37.10345 31.05885 34956 ft 468 kts 147°
2026-05-01 08:44 37.05152 31.10846 34961 ft 469 kts 147°
2026-05-01 08:44 36.99950 31.15812 34975 ft 469 kts 147°
2026-05-01 08:45 36.94782 31.20729 34966 ft 469 kts 147°
2026-05-01 08:45 36.89577 31.25664 34956 ft 469 kts 147°
2026-05-01 08:46 36.84366 31.30606 34963 ft 469 kts 147°
2026-05-01 08:46 36.79184 31.35500 34972 ft 469 kts 147°
2026-05-01 08:47 36.73960 31.40426 34976 ft 469 kts 147°
2026-05-01 08:47 36.68745 31.45351 34977 ft 469 kts 147°
2026-05-01 08:48 36.63568 31.50229 34961 ft 470 kts 147°
2026-05-01 08:48 36.58331 31.55144 34958 ft 471 kts 147°
2026-05-01 08:49 36.53117 31.60041 34963 ft 471 kts 147°
2026-05-01 08:49 36.47881 31.64938 34975 ft 471 kts 147°
2026-05-01 08:50 36.42630 31.69848 34975 ft 471 kts 147°
2026-05-01 08:50 36.37416 31.74706 34954 ft 471 kts 147°
2026-05-01 08:51 36.32156 31.79607 34960 ft 472 kts 147°
2026-05-01 08:51 36.26889 31.84508 34973 ft 473 kts 147°
2026-05-01 08:52 36.24252 31.86954 34762 ft 472 kts 147°
2026-05-01 08:52 36.21654 31.89361 34525 ft 472 kts 147°
2026-05-01 08:52 36.19017 31.91804 34294 ft 472 kts 146°
2026-05-01 08:52 36.16382 31.94244 34061 ft 473 kts 146°
2026-05-01 08:53 36.13745 31.96684 33799 ft 473 kts 146°
2026-05-01 08:53 36.11105 31.99124 33524 ft 473 kts 146°
2026-05-01 08:53 36.08465 32.01565 33256 ft 473 kts 146°
2026-05-01 08:53 36.05832 32.03995 32986 ft 472 kts 146°
2026-05-01 08:54 36.03240 32.06385 32720 ft 469 kts 146°
2026-05-01 08:54 36.00629 32.08792 32417 ft 466 kts 146°
2026-05-01 08:54 35.98032 32.11180 31831 ft 463 kts 146°
2026-05-01 08:54 35.95445 32.13553 31255 ft 461 kts 146°
2026-05-01 08:55 35.92870 32.15916 30688 ft 459 kts 146°
2026-05-01 08:55 35.90316 32.18265 30126 ft 457 kts 146°
2026-05-01 08:55 35.87798 32.20587 29515 ft 454 kts 146°
2026-05-01 08:55 35.85280 32.22908 28971 ft 450 kts 146°
2026-05-01 08:56 35.82778 32.25209 28423 ft 446 kts 146°
2026-05-01 08:56 35.80299 32.27478 27875 ft 441 kts 146°
2026-05-01 08:56 35.77839 32.29722 27355 ft 437 kts 146°
2026-05-01 08:56 35.75401 32.31945 26836 ft 434 kts 146°
2026-05-01 08:57 35.72984 32.34149 26325 ft 430 kts 146°
2026-05-01 08:57 35.70588 32.36332 25834 ft 426 kts 146°
2026-05-01 08:57 35.68242 32.38463 25357 ft 422 kts 146°
2026-05-01 08:57 35.65887 32.40603 24884 ft 418 kts 146°
2026-05-01 08:58 35.63559 32.42721 24416 ft 414 kts 146°
2026-05-01 08:58 35.61251 32.44821 23941 ft 410 kts 146°
2026-05-01 08:58 35.58963 32.46901 23468 ft 407 kts 146°
2026-05-01 08:58 35.56696 32.48958 22964 ft 403 kts 146°
2026-05-01 08:59 35.54454 32.50994 22499 ft 397 kts 146°
2026-05-01 08:59 35.52245 32.53003 22023 ft 393 kts 146°
2026-05-01 08:59 35.50085 32.54968 21569 ft 388 kts 146°
2026-05-01 08:59 35.47918 32.56934 21111 ft 385 kts 146°
2026-05-01 09:00 35.45770 32.58877 20641 ft 382 kts 146°
2026-05-01 09:00 35.43642 32.60801 20184 ft 379 kts 146°
2026-05-01 09:00 35.41523 32.62716 19713 ft 376 kts 146°
2026-05-01 09:00 35.39425 32.64612 19258 ft 374 kts 146°
2026-05-01 09:01 35.37334 32.66496 18802 ft 372 kts 146°
2026-05-01 09:01 35.35252 32.68370 18348 ft 371 kts 146°
2026-05-01 09:01 35.33180 32.70236 17856 ft 369 kts 146°
2026-05-01 09:01 35.31120 32.72092 17405 ft 365 kts 146°
2026-05-01 09:02 35.29080 32.73929 16969 ft 362 kts 146°
2026-05-01 09:02 35.27060 32.75749 16538 ft 359 kts 146°
2026-05-01 09:02 35.25059 32.77549 16106 ft 356 kts 146°
2026-05-01 09:02 35.23094 32.79316 15690 ft 353 kts 146°
2026-05-01 09:03 35.21123 32.81092 15269 ft 351 kts 146°
2026-05-01 09:03 35.19167 32.82854 14856 ft 348 kts 146°
2026-05-01 09:03 35.17220 32.84606 14441 ft 347 kts 146°
2026-05-01 09:03 35.15275 32.86350 14014 ft 345 kts 146°
2026-05-01 09:04 35.13331 32.88086 13580 ft 345 kts 146°
2026-05-01 09:04 35.11397 32.89811 13148 ft 342 kts 146°
2026-05-01 09:04 35.09488 32.91526 12721 ft 340 kts 143°
2026-05-01 09:04 35.07817 32.93560 12288 ft 340 kts 129°
2026-05-01 09:05 35.06601 32.96020 11872 ft 340 kts 114°
2026-05-01 09:05 35.05782 32.98721 11372 ft 339 kts 112°
2026-05-01 09:05 35.04652 33.01294 10533 ft 349 kts 122°
2026-05-01 09:05 35.03404 33.03844 10127 ft 346 kts 122°
2026-05-01 09:06 35.02204 33.06293 9970 ft 335 kts 122°
2026-05-01 09:06 35.01036 33.08673 9950 ft 318 kts 122°
2026-05-01 09:06 34.99924 33.10934 9956 ft 304 kts 122°
2026-05-01 09:06 34.98842 33.13126 9957 ft 301 kts 122°
2026-05-01 09:07 34.97765 33.15302 9419 ft 297 kts 122°
2026-05-01 09:07 34.96692 33.17468 8614 ft 295 kts 122°
2026-05-01 09:07 34.95636 33.19606 7832 ft 292 kts 122°
2026-05-01 09:07 34.94606 33.21695 7108 ft 289 kts 122°
2026-05-01 09:08 34.93574 33.23791 6362 ft 287 kts 122°
2026-05-01 09:08 34.92551 33.25871 5627 ft 282 kts 121°
2026-05-01 09:08 34.91557 33.27890 5185 ft 276 kts 121°
2026-05-01 09:08 34.90579 33.29869 4982 ft 268 kts 122°
2026-05-01 09:09 34.89637 33.31773 4860 ft 257 kts 121°
2026-05-01 09:09 34.88737 33.33588 4702 ft 249 kts 122°
2026-05-01 09:09 34.87846 33.35386 4435 ft 247 kts 122°
2026-05-01 09:09 34.86961 33.37170 4150 ft 244 kts 122°
2026-05-01 09:10 34.86083 33.38938 3745 ft 242 kts 122°
2026-05-01 09:10 34.85215 33.40687 3324 ft 240 kts 122°
2026-05-01 09:10 34.84355 33.42422 2893 ft 238 kts 122°
2026-05-01 09:10 34.83499 33.44142 2548 ft 234 kts 123°
2026-05-01 09:11 34.82669 33.45810 2226 ft 231 kts 122°
2026-05-01 09:11 34.81851 33.47454 2032 ft 222 kts 123°
2026-05-01 09:11 34.81073 33.49019 1927 ft 208 kts 122°
2026-05-01 09:11 34.80359 33.50465 1847 ft 190 kts 121°
2026-05-01 09:12 34.80031 33.51947 1771 ft 175 kts 92°
2026-05-01 09:12 34.80308 33.53347 1584 ft 171 kts 65°
2026-05-01 09:12 34.81045 33.54453 1345 ft 163 kts 49°
2026-05-01 09:12 34.81802 33.55420 1104 ft 154 kts 49°
2026-05-01 09:13 34.82528 33.56360 935 ft 152 kts 51°
2026-05-01 09:13 34.83246 33.57301 890 ft 151 kts 51°
2026-05-01 09:13 34.83976 33.58233 746 ft 152 kts 49°
2026-05-01 09:13 34.84707 33.59148 593 ft 151 kts 50°
2026-05-01 09:14 34.85445 33.60041 361 ft 150 kts 46°
2026-05-01 09:14 34.86189 33.60936 128 ft 150 kts 49°
2026-05-01 09:14 34.86910 33.61826 21 ft 138 kts 46°
2026-05-01 09:14 34.87453 33.62486 15 ft 69 kts 44°
2026-05-01 09:15 34.87669 33.62751 21 ft 36 kts 45°
2026-05-01 09:15 34.87768 33.62872 22 ft 21 kts 45°
2026-05-01 09:15 34.87883 33.62878 22 ft 13 kts 317°
2026-05-01 09:15 34.87942 33.62809 22 ft 11 kts 314°
2026-05-01 09:16 34.87929 33.62709 21 ft 18 kts 227°
2026-05-01 09:16 34.87868 33.62634 21 ft 19 kts 224°
2026-05-01 09:16 34.87770 33.62515 18 ft 20 kts 225°
2026-05-01 09:17 34.87610 33.62320 16 ft 28 kts 225°
2026-05-01 09:17 34.87515 33.62204 18 ft 28 kts 225°
2026-05-01 09:17 34.87241 33.61869 22 ft 29 kts 225°
2026-05-01 09:18 34.87098 33.61693 21 ft 29 kts 225°
2026-05-01 09:18 34.86889 33.61429 18 ft 12 kts 244°
2026-05-01 09:19 34.86959 33.61286 21 ft 8 kts 297°
2026-05-01 09:19 34.86951 33.61205 20 ft 11 kts 256°
2026-05-01 09:19 34.86948 33.61190 20 ft 1 kts 256°
2026-05-01 09:20 34.86946 33.61181 20 ft 0 kts 256°